| time (UTC) | temp F | wind direction | speed MPH | gust MPH | rain 1hr in | rain 24hr in | rain mn in | humidity % | barometer mb |
| 20260904195536 | 94 | 0.0 | 1.0 | 0.00 | 0.00 | 0.00 | 58 | 1022.5 | |
| 20260904195016 | 94 | 158 | 1.0 | 2.0 | 0.00 | 0.00 | 0.00 | 56 | 1022.4 |
| 20260904194516 | 94 | 158 | 1.0 | 4.0 | 0.00 | 0.00 | 0.00 | 57 | 1022.5 |
| 20260904194016 | 94 | 0.0 | 0.0 | 0.00 | 0.00 | 0.00 | 58 | 1022.5 | |
| 20260904193556 | 94 | 0.0 | 1.0 | 0.00 | 0.00 | 0.00 | 58 | 1022.6 | |
| 20260904193016 | 94 | 135 | 1.0 | 3.0 | 0.00 | 0.00 | 0.00 | 55 | 1022.7 |
| 20260904192516 | 94 | 0.0 | 2.0 | 0.00 | 0.00 | 0.00 | 56 | 1023.0 | |
| 20260904192016 | 94 | 0.0 | 2.0 | 0.00 | 0.00 | 0.00 | 56 | 1022.9 | |
| 20260904191536 | 94 | 0.0 | 3.0 | 0.00 | 0.00 | 0.00 | 60 | 1022.9 | |
| 20260904191016 | 94 | 0.0 | 2.0 | 0.00 | 0.00 | 0.00 | 57 | 1023.0 | |
| 20260904190516 | 94 | 0.0 | 0.0 | 0.00 | 0.00 | 0.00 | 55 | 1023.2 | |
| 20260904190016 | 94 | 0.0 | 2.0 | 0.00 | 0.00 | 0.00 | 55 | 1023.2 | |
| 20260904185516 | 94 | 0.0 | 2.0 | 0.00 | 0.00 | 0.00 | 55 | 1023.3 | |
| 20260904185016 | 94 | 0.0 | 2.0 | 0.00 | 0.00 | 0.00 | 56 | 1023.5 | |
| 20260904184536 | 94 | 0.0 | 2.0 | 0.00 | 0.00 | 0.00 | 54 | 1023.5 | |
| 20260904184016 | 94 | 0.0 | 1.0 | 0.00 | 0.00 | 0.00 | 57 | 1023.7 | |
| 20260904183516 | 94 | 0.0 | 1.0 | 0.00 | 0.00 | 0.00 | 55 | 1023.8 | |
| 20260904183016 | 94 | 0.0 | 1.0 | 0.00 | 0.00 | 0.00 | 54 | 1023.8 | |
| 20260904182516 | 94 | 0.0 | 4.0 | 0.00 | 0.00 | 0.00 | 54 | 1023.9 | |
| 20260904182016 | 94 | 135 | 1.0 | 3.0 | 0.00 | 0.00 | 0.00 | 54 | 1023.8 |
| 20260904181516 | 95 | 0.0 | 1.0 | 0.00 | 0.00 | 0.00 | 55 | 1023.8 | |
| 20260904181016 | 94 | 0.0 | 3.0 | 0.00 | 0.00 | 0.00 | 54 | 1023.9 | |
| 20260904180516 | 94 | 0.0 | 3.0 | 0.00 | 0.00 | 0.00 | 54 | 1023.9 | |
| 20260904180016 | 94 | 0.0 | 1.0 | 0.00 | 0.00 | 0.00 | 54 | 1024.0 | |
| 20260904175516 | 94 | 0.0 | 1.0 | 0.00 | 0.00 | 0.00 | 54 | 1024.1 | |
| 20260904175016 | 95 | 158 | 1.0 | 3.0 | 0.00 | 0.00 | 0.00 | 55 | 1024.1 |
| 20260904174536 | 95 | 0.0 | 3.0 | 0.00 | 0.00 | 0.00 | 56 | 1024.2 | |
| 20260904174016 | 94 | 135 | 1.0 | 3.0 | 0.00 | 0.00 | 0.00 | 55 | 1024.3 |
| 20260904173516 | 94 | 0.0 | 1.0 | 0.00 | 0.00 | 0.00 | 55 | 1024.3 | |
| 20260904173016 | 94 | 158 | 1.0 | 3.0 | 0.00 | 0.00 | 0.00 | 55 | 1024.3 |
| 20260904172536 | 94 | 0.0 | 2.0 | 0.00 | 0.00 | 0.00 | 55 | 1024.3 | |
| 20260904172016 | 94 | 0.0 | 1.0 | 0.00 | 0.00 | 0.00 | 56 | 1024.2 | |
| 20260904171516 | 95 | 0.0 | 3.0 | 0.00 | 0.00 | 0.00 | 56 | 1024.4 | |
| 20260904171016 | 96 | 0.0 | 1.0 | 0.00 | 0.00 | 0.00 | 53 | 1024.4 | |
| 20260904170536 | 95 | 135 | 1.0 | 3.0 | 0.00 | 0.00 | 0.00 | 56 | 1024.3 |
| 20260904170016 | 95 | 0.0 | 3.0 | 0.00 | 0.00 | 0.00 | 57 | 1024.3 | |
| 20260904165516 | 94 | 0.0 | 1.0 | 0.00 | 0.00 | 0.00 | 54 | 1024.3 | |
| 20260904165016 | 95 | 0.0 | 2.0 | 0.00 | 0.00 | 0.00 | 55 | 1024.3 | |
| 20260904164516 | 95 | 0.0 | 2.0 | 0.00 | 0.00 | 0.00 | 57 | 1024.3 | |
| 20260904164016 | 95 | 0.0 | 1.0 | 0.00 | 0.00 | 0.00 | 55 | 1024.4 | |
| 20260904163516 | 95 | 0.0 | 2.0 | 0.00 | 0.00 | 0.00 | 55 | 1024.5 | |
| 20260904163016 | 95 | 0.0 | 2.0 | 0.00 | 0.00 | 0.00 | 54 | 1024.6 | |
| 20260904162516 | 96 | 0.0 | 1.0 | 0.00 | 0.00 | 0.00 | 55 | 1024.7 | |
| 20260904162016 | 96 | 158 | 1.0 | 3.0 | 0.00 | 0.00 | 0.00 | 55 | 1024.8 |
| 20260904161516 | 96 | 0.0 | 2.0 | 0.00 | 0.00 | 0.00 | 55 | 1024.8 | |
| 20260904161016 | 96 | 135 | 1.0 | 2.0 | 0.00 | 0.00 | 0.00 | 56 | 1024.8 |
| 20260904160516 | 95 | 135 | 1.0 | 2.0 | 0.00 | 0.00 | 0.00 | 56 | 1025.0 |
| 20260904160016 | 96 | 0.0 | 0.0 | 0.00 | 0.00 | 0.00 | 56 | 1025.0 | |
| 20260904155536 | 95 | 0.0 | 2.0 | 0.00 | 0.00 | 0.00 | 56 | 1025.1 | |
| 20260904155016 | 95 | 0.0 | 2.0 | 0.00 | 0.00 | 0.00 | 56 | 1025.0 | |
| 20260904154516 | 94 | 0.0 | 1.0 | 0.00 | 0.00 | 0.00 | 57 | 1025.1 | |
| 20260904154036 | 94 | 0.0 | 1.0 | 0.00 | 0.00 | 0.00 | 59 | 1025.0 | |
| 20260904153516 | 94 | 0.0 | 1.0 | 0.00 | 0.00 | 0.00 | 59 | 1025.0 | |
| 20260904153016 | 94 | 270 | 1.0 | 2.0 | 0.00 | 0.00 | 0.00 | 61 | 1025.1 |
| 20260904152516 | 94 | 0.0 | 1.0 | 0.00 | 0.00 | 0.00 | 63 | 1025.1 | |
| 20260904152016 | 94 | 0.0 | 3.0 | 0.00 | 0.00 | 0.00 | 66 | 1025.1 | |
| 20260904151556 | 94 | 0.0 | 1.0 | 0.00 | 0.00 | 0.00 | 68 | 1025.1 | |
| 20260904151016 | 93 | 0.0 | 1.0 | 0.00 | 0.00 | 0.00 | 67 | 1024.9 | |
| 20260904150516 | 92 | 0.0 | 2.0 | 0.00 | 0.00 | 0.00 | 68 | 1025.0 | |
| 20260904150016 | 92 | 0.0 | 1.0 | 0.00 | 0.00 | 0.00 | 69 | 1025.0 | |
| 20260904145516 | 91 | 0.0 | 2.0 | 0.00 | 0.00 | 0.00 | 71 | 1025.0 | |
| 20260904145016 | 91 | 0.0 | 3.0 | 0.00 | 0.00 | 0.00 | 72 | 1025.1 | |
| 20260904144516 | 90 | 0.0 | 1.0 | 0.00 | 0.00 | 0.00 | 72 | 1025.0 | |
| 20260904144016 | 90 | 0.0 | 1.0 | 0.00 | 0.00 | 0.00 | 72 | 1024.9 | |
| 20260904143516 | 90 | 0.0 | 1.0 | 0.00 | 0.00 | 0.00 | 73 | 1025.1 | |
| 20260904143016 | 89 | 0.0 | 1.0 | 0.00 | 0.00 | 0.00 | 74 | 1025.0 | |
| 20260904142516 | 89 | 0.0 | 1.0 | 0.00 | 0.00 | 0.00 | 73 | 1025.1 | |
| 20260904142016 | 89 | 0.0 | 1.0 | 0.00 | 0.00 | 0.00 | 73 | 1025.0 | |
| 20260904141516 | 89 | 0.0 | 1.0 | 0.00 | 0.00 | 0.00 | 74 | 1024.9 | |
| 20260904141016 | 88 | 0.0 | 1.0 | 0.00 | 0.00 | 0.00 | 75 | 1025.0 | |
| 20260904140516 | 88 | 0.0 | 1.0 | 0.00 | 0.00 | 0.00 | 76 | 1024.8 | |
| 20260904140036 | 87 | 0.0 | 1.0 | 0.00 | 0.00 | 0.00 | 76 | 1024.8 | |
| 20260904135516 | 87 | 0.0 | 1.0 | 0.00 | 0.00 | 0.00 | 76 | 1024.7 | |
| 20260904135036 | 87 | 0.0 | 1.0 | 0.00 | 0.00 | 0.00 | 77 | 1024.8 | |
| 20260904134516 | 87 | 0.0 | 1.0 | 0.00 | 0.00 | 0.00 | 77 | 1024.8 | |
| 20260904134016 | 86 | 0.0 | 1.0 | 0.00 | 0.00 | 0.00 | 77 | 1024.7 | |
| 20260904133556 | 86 | 0.0 | 1.0 | 0.00 | 0.00 | 0.00 | 78 | 1024.7 | |
| 20260904133016 | 85 | 0.0 | 1.0 | 0.00 | 0.00 | 0.00 | 79 | 1024.7 | |
| 20260904132536 | 85 | 0.0 | 1.0 | 0.00 | 0.00 | 0.00 | 79 | 1024.7 | |
| 20260904132016 | 84 | 0.0 | 1.0 | 0.00 | 0.00 | 0.00 | 81 | 1024.7 | |
| 20260904131516 | 84 | 0.0 | 1.0 | 0.00 | 0.00 | 0.00 | 81 | 1024.6 | |
| 20260904131016 | 84 | 0.0 | 1.0 | 0.00 | 0.00 | 0.00 | 82 | 1024.5 | |
| 20260904130516 | 83 | 0.0 | 1.0 | 0.00 | 0.00 | 0.00 | 83 | 1024.5 | |
| 20260904130016 | 82 | 0.0 | 1.0 | 0.00 | 0.00 | 0.00 | 83 | 1024.6 | |
| 20260904125516 | 81 | 0.0 | 1.0 | 0.00 | 0.00 | 0.00 | 86 | 1024.5 | |
| 20260904125036 | 81 | 0.0 | 1.0 | 0.00 | 0.00 | 0.00 | 87 | 1024.6 | |
| 20260904124516 | 80 | 0.0 | 1.0 | 0.00 | 0.00 | 0.00 | 88 | 1024.6 | |
| 20260904124016 | 80 | 0.0 | 1.0 | 0.00 | 0.00 | 0.00 | 89 | 1024.8 | |
| 20260904123516 | 79 | 0.0 | 1.0 | 0.00 | 0.00 | 0.00 | 91 | 1024.8 | |
| 20260904123016 | 78 | 0.0 | 1.0 | 0.00 | 0.00 | 0.00 | 91 | 1024.8 | |
| 20260904122516 | 78 | 0.0 | 1.0 | 0.00 | 0.00 | 0.00 | 92 | 1024.9 | |
| 20260904122016 | 77 | 0.0 | 1.0 | 0.00 | 0.00 | 0.00 | 93 | 1024.9 | |
| 20260904121516 | 77 | 0.0 | 0.0 | 0.00 | 0.00 | 0.00 | 93 | 1024.9 | |
| 20260904121036 | 76 | 0.0 | 1.0 | 0.00 | 0.00 | 0.00 | 94 | 1024.9 | |
| 20260904120517 | 76 | 0.0 | 1.0 | 0.00 | 0.00 | 0.00 | 94 | 1024.7 | |
| 20260904120016 | 75 | 0.0 | 0.0 | 0.00 | 0.00 | 0.00 | 94 | 1024.7 | |
| 20260904115516 | 75 | 0.0 | 0.0 | 0.00 | 0.00 | 0.00 | 94 | 1024.7 | |
| 20260904115016 | 75 | 0.0 | 0.0 | 0.00 | 0.00 | 0.00 | 94 | 1024.7 | |
| 20260904114516 | 74 | 0.0 | 1.0 | 0.00 | 0.00 | 0.00 | 94 | 1024.7 | |
| 20260904114016 | 74 | 0.0 | 0.0 | 0.00 | 0.00 | 0.00 | 94 | 1024.7 | |
| 20260904113516 | 74 | 0.0 | 0.0 | 0.00 | 0.00 | 0.00 | 94 | 1024.8 | |
| 20260904113016 | 74 | 0.0 | 0.0 | 0.00 | 0.00 | 0.00 | 94 | 1024.7 | |
| 20260904112516 | 74 | 0.0 | 0.0 | 0.00 | 0.00 | 0.00 | 94 | 1024.7 | |
| 20260904112016 | 74 | 0.0 | 0.0 | 0.00 | 0.00 | 0.00 | 94 | 1024.8 | |
| 20260904111536 | 74 | 0.0 | 0.0 | 0.00 | 0.00 | 0.00 | 94 | 1024.9 | |
| 20260904111016 | 74 | 0.0 | 0.0 | 0.00 | 0.00 | 0.00 | 94 | 1024.8 | |
| 20260904110516 | 74 | 0.0 | 0.0 | 0.00 | 0.00 | 0.00 | 94 | 1024.7 | |
| 20260904110036 | 74 | 0.0 | 0.0 | 0.00 | 0.00 | 0.00 | 94 | 1024.7 | |
| 20260904105516 | 74 | 0.0 | 0.0 | 0.00 | 0.00 | 0.00 | 94 | 1024.7 | |
| 20260904105036 | 74 | 0.0 | 0.0 | 0.00 | 0.00 | 0.00 | 94 | 1024.5 | |
| 20260904104517 | 74 | 0.0 | 0.0 | 0.00 | 0.00 | 0.00 | 94 | 1024.4 | |
| 20260904104016 | 74 | 0.0 | 0.0 | 0.00 | 0.00 | 0.00 | 94 | 1024.4 | |
| 20260904103516 | 74 | 0.0 | 0.0 | 0.00 | 0.00 | 0.00 | 93 | 1024.3 | |
| 20260904103016 | 74 | 0.0 | 0.0 | 0.00 | 0.00 | 0.00 | 93 | 1024.4 | |
| 20260904102516 | 74 | 0.0 | 0.0 | 0.00 | 0.00 | 0.00 | 93 | 1024.5 | |
| 20260904102016 | 74 | 0.0 | 0.0 | 0.00 | 0.00 | 0.00 | 94 | 1024.5 | |
| 20260904101516 | 74 | 0.0 | 0.0 | 0.00 | 0.00 | 0.00 | 93 | 1024.4 | |
| 20260904101036 | 74 | 0.0 | 0.0 | 0.00 | 0.00 | 0.00 | 93 | 1024.5 | |
| 20260904100516 | 74 | 0.0 | 0.0 | 0.00 | 0.00 | 0.00 | 93 | 1024.4 | |
| 20260904100015 | 75 | 0.0 | 0.0 | 0.00 | 0.00 | 0.00 | 93 | 1024.6 | |
| 20260904095516 | 75 | 0.0 | 0.0 | 0.00 | 0.00 | 0.00 | 93 | 1024.5 | |
| 20260904095016 | 75 | 0.0 | 0.0 | 0.00 | 0.00 | 0.00 | 93 | 1024.5 | |
| 20260904094515 | 75 | 0.0 | 0.0 | 0.00 | 0.00 | 0.00 | 93 | 1024.6 | |
| 20260904094016 | 75 | 0.0 | 0.0 | 0.00 | 0.00 | 0.00 | 93 | 1024.6 | |
| 20260904093536 | 75 | 0.0 | 0.0 | 0.00 | 0.00 | 0.00 | 93 | 1024.8 | |
| 20260904093015 | 75 | 0.0 | 0.0 | 0.00 | 0.00 | 0.00 | 92 | 1024.8 | |
| 20260904092516 | 75 | 0.0 | 0.0 | 0.00 | 0.00 | 0.00 | 92 | 1024.8 | |
| 20260904092136 | 75 | 0.0 | 0.0 | 0.00 | 0.00 | 0.00 | 92 | 1024.9 | |
| 20260904091536 | 75 | 0.0 | 0.0 | 0.00 | 0.00 | 0.00 | 92 | 1025.0 | |
| 20260904091016 | 76 | 0.0 | 0.0 | 0.00 | 0.00 | 0.00 | 92 | 1025.0 | |
| 20260904090536 | 76 | 0.0 | 1.0 | 0.00 | 0.00 | 0.00 | 92 | 1025.0 | |
| 20260904090016 | 76 | 0.0 | 0.0 | 0.00 | 0.00 | 0.00 | 92 | 1024.9 | |
| 20260904085516 | 76 | 0.0 | 0.0 | 0.00 | 0.00 | 0.00 | 91 | 1024.9 | |
| 20260904085016 | 76 | 0.0 | 0.0 | 0.00 | 0.00 | 0.00 | 91 | 1024.9 | |
| 20260904084516 | 76 | 0.0 | 0.0 | 0.00 | 0.00 | 0.00 | 91 | 1025.0 | |
| 20260904084016 | 76 | 0.0 | 0.0 | 0.00 | 0.00 | 0.00 | 91 | 1024.9 | |
| 20260904083515 | 77 | 0.0 | 0.0 | 0.00 | 0.00 | 0.00 | 91 | 1024.7 | |
| 20260904083016 | 77 | 0.0 | 0.0 | 0.00 | 0.00 | 0.00 | 91 | 1024.9 | |
| 20260904082536 | 77 | 0.0 | 0.0 | 0.00 | 0.00 | 0.00 | 90 | 1024.7 | |
| 20260904082016 | 77 | 0.0 | 0.0 | 0.00 | 0.00 | 0.00 | 90 | 1024.8 | |
| 20260904081516 | 77 | 0.0 | 1.0 | 0.00 | 0.00 | 0.00 | 90 | 1024.8 | |
| 20260904081016 | 77 | 0.0 | 0.0 | 0.00 | 0.00 | 0.00 | 89 | 1024.5 | |
| 20260904080517 | 77 | 0.0 | 0.0 | 0.00 | 0.00 | 0.00 | 89 | 1024.5 | |
| 20260904080036 | 78 | 0.0 | 0.0 | 0.00 | 0.00 | 0.00 | 89 | 1024.4 | |
| 20260904075516 | 78 | 0.0 | 0.0 | 0.00 | 0.00 | 0.00 | 88 | 1024.4 | |
| 20260904075016 | 78 | 0.0 | 0.0 | 0.00 | 0.00 | 0.00 | 88 | 1024.5 | |
| 20260904074536 | 78 | 0.0 | 0.0 | 0.00 | 0.00 | 0.00 | 88 | 1024.5 | |
| 20260904074016 | 78 | 0.0 | 1.0 | 0.00 | 0.00 | 0.00 | 87 | 1024.3 | |
| 20260904073516 | 79 | 0.0 | 1.0 | 0.00 | 0.00 | 0.00 | 88 | 1024.5 | |
| 20260904073056 | 79 | 0.0 | 0.0 | 0.00 | 0.00 | 0.00 | 87 | 1024.3 | |
| 20260904072556 | 79 | 0.0 | 1.0 | 0.00 | 0.00 | 0.00 | 87 | 1024.4 | |
| 20260904072016 | 79 | 0.0 | 1.0 | 0.00 | 0.00 | 0.00 | 87 | 1024.3 | |
| 20260904071516 | 79 | 0.0 | 2.0 | 0.00 | 0.00 | 0.00 | 88 | 1023.9 | |
| 20260904071016 | 79 | 0.0 | 1.0 | 0.00 | 0.00 | 0.00 | 88 | 1023.6 | |
| 20260904070515 | 79 | 0.0 | 1.0 | 0.00 | 0.00 | 0.00 | 87 | 1023.9 | |
| 20260904070036 | 79 | 0.0 | 1.0 | 0.00 | 0.00 | 0.00 | 87 | 1024.4 | |
| 20260904065516 | 79 | 0 | 1.0 | 2.0 | 0.00 | 0.00 | 0.00 | 87 | 1024.5 |
| 20260904065016 | 79 | 0.0 | 1.0 | 0.00 | 0.00 | 0.00 | 88 | 1024.2 | |
| 20260904064516 | 79 | 158 | 1.0 | 2.0 | 0.00 | 0.00 | 0.00 | 89 | 1024.1 |
| 20260904064016 | 79 | 0.0 | 2.0 | 0.00 | 0.00 | 0.00 | 88 | 1024.7 | |
| 20260904063516 | 78 | 23 | 1.0 | 3.0 | 0.00 | 0.00 | 0.00 | 89 | 1025.0 |
| 20260904063016 | 78 | 0.0 | 0.0 | 0.00 | 0.00 | 0.00 | 90 | 1024.0 | |
| 20260904062515 | 78 | 0.0 | 0.0 | 0.00 | 0.00 | 0.00 | 90 | 1024.0 | |
| 20260904062016 | 78 | 0.0 | 0.0 | 0.00 | 0.00 | 0.00 | 90 | 1024.1 | |
| 20260904061536 | 78 | 0.0 | 0.0 | 0.00 | 0.00 | 0.00 | 89 | 1024.1 | |
| 20260904061016 | 78 | 0.0 | 0.0 | 0.00 | 0.00 | 0.00 | 89 | 1024.3 | |
| 20260904060515 | 78 | 0.0 | 0.0 | 0.00 | 0.00 | 0.00 | 90 | 1024.4 | |
| 20260904060016 | 78 | 0.0 | 0.0 | 0.00 | 0.00 | 0.00 | 90 | 1024.3 | |
| 20260904055516 | 78 | 0.0 | 0.0 | 0.00 | 0.00 | 0.00 | 90 | 1024.4 | |
| 20260904055016 | 78 | 0.0 | 0.0 | 0.00 | 0.00 | 0.00 | 90 | 1024.3 | |
| 20260904054556 | 78 | 0.0 | 0.0 | 0.00 | 0.00 | 0.00 | 91 | 1024.4 | |
| 20260904054016 | 78 | 0.0 | 0.0 | 0.00 | 0.00 | 0.00 | 91 | 1024.5 | |
| 20260904053516 | 78 | 0.0 | 0.0 | 0.00 | 0.00 | 0.00 | 91 | 1024.8 | |
| 20260904053016 | 78 | 0.0 | 0.0 | 0.00 | 0.00 | 0.00 | 91 | 1024.9 | |
| 20260904052515 | 79 | 0.0 | 0.0 | 0.00 | 0.00 | 0.00 | 91 | 1024.9 | |
| 20260904052015 | 79 | 0.0 | 0.0 | 0.00 | 0.00 | 0.00 | 91 | 1024.9 | |
| 20260904051515 | 79 | 0.0 | 0.0 | 0.00 | 0.00 | 0.00 | 90 | 1025.1 | |
| 20260904051015 | 79 | 0.0 | 0.0 | 0.00 | 0.00 | 0.00 | 90 | 1025.1 | |
| 20260904050515 | 79 | 0.0 | 0.0 | 0.00 | 0.00 | 0.00 | 90 | 1025.2 | |
| 20260904050016 | 79 | 0.0 | 0.0 | 0.00 | 0.00 | 0.00 | 90 | 1025.2 | |
| 20260904045515 | 79 | 0.0 | 0.0 | 0.00 | 0.00 | 0.00 | 90 | 1025.2 | |
| 20260904045016 | 79 | 0.0 | 0.0 | 0.00 | 0.00 | 0.00 | 91 | 1025.3 | |
| 20260904044515 | 79 | 0.0 | 0.0 | 0.00 | 0.00 | 0.00 | 91 | 1025.3 | |
| 20260904044015 | 79 | 0.0 | 0.0 | 0.00 | 0.00 | 0.00 | 91 | 1025.4 | |
| 20260904043515 | 79 | 0.0 | 0.0 | 0.00 | 0.00 | 0.00 | 91 | 1025.4 | |
| 20260904043016 | 79 | 0.0 | 0.0 | 0.00 | 0.00 | 0.00 | 91 | 1025.3 | |
| 20260904042515 | 79 | 0.0 | 0.0 | 0.00 | 0.00 | 0.00 | 91 | 1025.3 | |
| 20260904042016 | 79 | 0.0 | 0.0 | 0.00 | 0.00 | 0.00 | 91 | 1025.3 | |
| 20260904041515 | 79 | 0.0 | 0.0 | 0.00 | 0.00 | 0.00 | 91 | 1025.3 | |
| 20260904041016 | 79 | 0.0 | 0.0 | 0.00 | 0.00 | 0.00 | 91 | 1025.3 | |
| 20260904040536 | 79 | 0.0 | 0.0 | 0.00 | 0.00 | 0.00 | 90 | 1025.3 | |
| 20260904040017 | 80 | 0.0 | 0.0 | 0.00 | 0.00 | 0.00 | 90 | 1025.4 | |
| 20260904035516 | 80 | 0.0 | 0.0 | 0.00 | 0.00 | 0.00 | 90 | 1025.4 | |
| 20260904035016 | 80 | 0.0 | 0.0 | 0.00 | 0.00 | 0.00 | 90 | 1025.6 | |
| 20260904034516 | 80 | 0.0 | 0.0 | 0.00 | 0.00 | 0.00 | 90 | 1025.7 | |
| 20260904034016 | 80 | 0.0 | 0.0 | 0.00 | 0.00 | 0.00 | 90 | 1025.7 | |
| 20260904033516 | 80 | 0.0 | 0.0 | 0.00 | 0.00 | 0.00 | 90 | 1025.6 | |
| 20260904033016 | 80 | 0.0 | 0.0 | 0.00 | 0.00 | 0.00 | 90 | 1025.3 | |
| 20260904032516 | 80 | 0.0 | 0.0 | 0.00 | 0.00 | 0.00 | 90 | 1025.3 | |
| 20260904032016 | 80 | 0.0 | 0.0 | 0.00 | 0.00 | 0.00 | 90 | 1025.4 | |
| 20260904031536 | 80 | 0.0 | 0.0 | 0.00 | 0.00 | 0.00 | 90 | 1025.3 | |
| 20260904031016 | 80 | 0.0 | 0.0 | 0.00 | 0.00 | 0.00 | 89 | 1025.4 | |
| 20260904030516 | 80 | 0.0 | 0.0 | 0.00 | 0.00 | 0.00 | 90 | 1025.1 | |
| 20260904030016 | 79 | 0.0 | 0.0 | 0.00 | 0.00 | 0.00 | 90 | 1025.1 | |
| 20260904025516 | 79 | 0.0 | 0.0 | 0.00 | 0.00 | 0.00 | 90 | 1025.1 | |
| 20260904025036 | 79 | 0.0 | 0.0 | 0.00 | 0.00 | 0.00 | 91 | 1025.0 | |
| 20260904024516 | 80 | 0.0 | 0.0 | 0.00 | 0.00 | 0.00 | 92 | 1025.2 | |
| 20260904024036 | 80 | 0.0 | 0.0 | 0.00 | 0.00 | 0.00 | 92 | 1025.2 | |
| 20260904023516 | 80 | 0.0 | 0.0 | 0.00 | 0.00 | 0.00 | 92 | 1025.2 | |
| 20260904023037 | 80 | 0.0 | 1.0 | 0.00 | 0.00 | 0.00 | 92 | 1025.2 | |
| 20260904022536 | 80 | 0.0 | 1.0 | 0.00 | 0.00 | 0.00 | 92 | 1025.2 | |
| 20260904022036 | 80 | 0.0 | 0.0 | 0.00 | 0.00 | 0.00 | 92 | 1025.3 | |
| 20260904021536 | 80 | 0.0 | 1.0 | 0.00 | 0.00 | 0.00 | 92 | 1025.2 | |
| 20260904021016 | 80 | 0.0 | 0.0 | 0.00 | 0.00 | 0.00 | 92 | 1025.3 | |
| 20260904020536 | 80 | 0.0 | 0.0 | 0.00 | 0.00 | 0.00 | 92 | 1025.3 | |
| 20260904020016 | 80 | 0.0 | 1.0 | 0.00 | 0.00 | 0.00 | 93 | 1025.4 | |
| 20260904015516 | 81 | 0.0 | 0.0 | 0.00 | 0.00 | 0.00 | 93 | 1025.5 | |
| 20260904015016 | 81 | 0.0 | 0.0 | 0.00 | 0.00 | 0.00 | 93 | 1025.5 | |
| 20260904014516 | 81 | 0.0 | 0.0 | 0.00 | 0.00 | 0.00 | 92 | 1025.5 | |
| 20260904014036 | 81 | 0.0 | 0.0 | 0.00 | 0.00 | 0.00 | 92 | 1025.5 | |
| 20260904013516 | 81 | 0.0 | 1.0 | 0.00 | 0.00 | 0.00 | 92 | 1025.6 | |
| 20260904013016 | 81 | 143 | 0.0 | 0.0 | 0.00 | 0.00 | 0.00 | 92 | 1025.7 |
| 20260904012516 | 81 | 0.0 | 0.0 | 0.00 | 0.00 | 0.00 | 92 | 1025.6 | |
| 20260904012016 | 81 | 0.0 | 0.0 | 0.00 | 0.00 | 0.00 | 92 | 1025.5 | |
| 20260904011616 | 81 | 0.0 | 0.0 | 0.00 | 0.00 | 0.00 | 92 | 1025.5 | |
| 20260904011016 | 81 | 0.0 | 0.0 | 0.00 | 0.00 | 0.00 | 91 | 1025.6 | |
| 20260904010536 | 82 | 0.0 | 0.0 | 0.00 | 0.00 | 0.00 | 91 | 1025.7 | |
| 20260904010036 | 82 | 0.0 | 0.0 | 0.00 | 0.00 | 0.00 | 91 | 1025.5 | |
| 20260904005516 | 82 | 0.0 | 0.0 | 0.00 | 0.00 | 0.00 | 91 | 1025.5 | |
| 20260904005016 | 82 | 0.0 | 0.0 | 0.00 | 0.00 | 0.00 | 91 | 1025.5 | |
| 20260904004536 | 82 | 0.0 | 0.0 | 0.00 | 0.00 | 0.00 | 90 | 1025.4 | |
| 20260904004016 | 82 | 0.0 | 0.0 | 0.00 | 0.00 | 0.00 | 90 | 1025.4 | |
| 20260904003516 | 83 | 0.0 | 0.0 | 0.00 | 0.00 | 0.00 | 89 | 1025.4 | |
| 20260904003016 | 83 | 0.0 | 0.0 | 0.00 | 0.00 | 0.00 | 89 | 1025.3 | |
| 20260904002516 | 83 | 0.0 | 0.0 | 0.00 | 0.00 | 0.00 | 89 | 1025.2 | |
| 20260904002016 | 83 | 0.0 | 0.0 | 0.00 | 0.00 | 0.00 | 88 | 1025.1 | |
| 20260904001516 | 84 | 0.0 | 0.0 | 0.00 | 0.00 | 0.00 | 88 | 1024.9 | |
| 20260904001016 | 84 | 0.0 | 0.0 | 0.00 | 0.00 | 0.00 | 87 | 1024.7 | |
| 20260904000516 | 84 | 0.0 | 0.0 | 0.00 | 0.00 | 0.00 | 86 | 1024.7 | |
| 20260904000016 | 84 | 0.0 | 0.0 | 0.00 | 0.00 | 0.00 | 86 | 1024.7 | |
| 20260903235536 | 85 | 0.0 | 0.0 | 0.00 | 0.00 | 0.00 | 86 | 1024.6 | |
| 20260903235016 | 85 | 0.0 | 0.0 | 0.00 | 0.00 | 0.00 | 86 | 1024.5 | |
| 20260903234536 | 85 | 0.0 | 0.0 | 0.00 | 0.00 | 0.00 | 85 | 1024.4 | |
| 20260903234036 | 86 | 0.0 | 0.0 | 0.00 | 0.00 | 0.00 | 85 | 1024.3 | |
| 20260903233516 | 86 | 0.0 | 0.0 | 0.00 | 0.00 | 0.00 | 83 | 1024.4 | |
| 20260903233016 | 86 | 0.0 | 0.0 | 0.00 | 0.00 | 0.00 | 84 | 1024.4 | |
| 20260903232516 | 86 | 0.0 | 0.0 | 0.00 | 0.00 | 0.00 | 83 | 1024.3 | |
| 20260903232016 | 87 | 0.0 | 0.0 | 0.00 | 0.00 | 0.00 | 82 | 1024.4 | |
| 20260903231516 | 87 | 0.0 | 0.0 | 0.00 | 0.00 | 0.00 | 82 | 1024.5 | |
| 20260903231016 | 87 | 0.0 | 0.0 | 0.00 | 0.00 | 0.00 | 82 | 1024.4 | |
| 20260903230522 | 87 | 0.0 | 0.0 | 0.00 | 0.00 | 0.00 | 82 | 1024.2 | |
| 20260903230016 | 87 | 0.0 | 0.0 | 0.00 | 0.00 | 0.00 | 82 | 1024.2 | |
| 20260903225516 | 87 | 0.0 | 0.0 | 0.00 | 0.00 | 0.00 | 82 | 1024.2 | |
| 20260903225036 | 87 | 0.0 | 1.0 | 0.00 | 0.00 | 0.00 | 81 | 1024.2 | |
| 20260903224516 | 87 | 0.0 | 0.0 | 0.00 | 0.00 | 0.00 | 79 | 1024.3 | |
| 20260903224016 | 87 | 0.0 | 0.0 | 0.00 | 0.00 | 0.00 | 80 | 1024.2 | |
| 20260903223516 | 87 | 0.0 | 0.0 | 0.00 | 0.00 | 0.00 | 79 | 1024.0 | |
| 20260903223016 | 87 | 0.0 | 0.0 | 0.00 | 0.00 | 0.00 | 78 | 1024.0 | |
| 20260903222516 | 87 | 0.0 | 0.0 | 0.00 | 0.00 | 0.00 | 77 | 1024.2 | |
| 20260903222016 | 87 | 0.0 | 0.0 | 0.00 | 0.00 | 0.00 | 77 | 1024.3 | |
| 20260903221516 | 87 | 0.0 | 0.0 | 0.00 | 0.00 | 0.00 | 75 | 1024.3 | |
| 20260903221016 | 87 | 0.0 | 0.0 | 0.00 | 0.00 | 0.00 | 74 | 1024.4 | |
| 20260903220516 | 87 | 0.0 | 0.0 | 0.00 | 0.00 | 0.00 | 74 | 1024.5 | |
| 20260903220016 | 88 | 0.0 | 0.0 | 0.00 | 0.00 | 0.00 | 74 | 1024.6 | |
| 20260903215516 | 88 | 0.0 | 0.0 | 0.00 | 0.00 | 0.00 | 70 | 1024.6 | |
| 20260903215016 | 88 | 0.0 | 0.0 | 0.00 | 0.00 | 0.00 | 69 | 1024.5 | |
| 20260903214516 | 89 | 0.0 | 0.0 | 0.00 | 0.00 | 0.00 | 69 | 1024.5 | |
| 20260903214016 | 89 | 0.0 | 0.0 | 0.00 | 0.00 | 0.00 | 68 | 1024.4 | |
| 20260903213536 | 89 | 0.0 | 0.0 | 0.00 | 0.00 | 0.00 | 67 | 1024.5 | |
| 20260903213016 | 90 | 0.0 | 0.0 | 0.00 | 0.00 | 0.00 | 67 | 1024.6 | |
| 20260903212516 | 90 | 0.0 | 0.0 | 0.00 | 0.00 | 0.00 | 66 | 1024.5 | |
| 20260903212036 | 91 | 0.0 | 0.0 | 0.00 | 0.00 | 0.00 | 64 | 1024.5 | |
| 20260903211516 | 91 | 0.0 | 1.0 | 0.00 | 0.00 | 0.00 | 65 | 1024.7 | |
| 20260903211016 | 91 | 0.0 | 0.0 | 0.00 | 0.00 | 0.00 | 64 | 1024.7 | |
| 20260903210516 | 91 | 0.0 | 0.0 | 0.00 | 0.00 | 0.00 | 65 | 1024.7 | |
| 20260903210016 | 92 | 0.0 | 0.0 | 0.00 | 0.00 | 0.00 | 62 | 1024.8 | |
| 20260903205516 | 92 | 0.0 | 1.0 | 0.00 | 0.00 | 0.00 | 61 | 1024.9 | |
| 20260903205016 | 92 | 0.0 | 1.0 | 0.00 | 0.00 | 0.00 | 64 | 1024.9 | |
| 20260903204536 | 93 | 0.0 | 1.0 | 0.00 | 0.00 | 0.00 | 63 | 1024.9 | |
| 20260903204036 | 93 | 0.0 | 1.0 | 0.00 | 0.00 | 0.00 | 60 | 1024.9 | |
| 20260903203516 | 93 | 0.0 | 1.0 | 0.00 | 0.00 | 0.00 | 59 | 1025.0 | |
| 20260903203016 | 93 | 135 | 2.0 | 6.0 | 0.00 | 0.00 | 0.00 | 56 | 1025.0 |
| 20260903202516 | 93 | 158 | 1.0 | 6.0 | 0.00 | 0.00 | 0.00 | 58 | 1025.1 |
| 20260903202036 | 93 | 135 | 1.0 | 4.0 | 0.00 | 0.00 | 0.00 | 57 | 1025.1 |
| 20260903201516 | 93 | 0.0 | 1.0 | 0.00 | 0.00 | 0.00 | 59 | 1025.2 | |
| 20260903201016 | 93 | 158 | 1.0 | 2.0 | 0.00 | 0.00 | 0.00 | 58 | 1025.2 |
| 20260903200516 | 93 | 158 | 1.0 | 4.0 | 0.00 | 0.00 | 0.00 | 59 | 1025.5 |
| 20260903200016 | 93 | 158 | 1.0 | 4.0 | 0.00 | 0.00 | 0.00 | 60 | 1025.4 |